Regional Weather Roundup
Issued by NWS

Home | Current Version | Previous Version | Graphics & Text | Print | Product List | Glossary On
Versions: 1 2 3 4 5 6 7 8 9 10 11 12 13 14 15 16 17 18 19 20 21 22 23 24 25 26 27 28 29 30 31 32 33 34 35 36 37 38 39 40 41 42 43 44 45 46 47 48 49 50
000
ASUS45 KBOU 190107
RWRCO

WEATHER ROUNDUP FOR COLORADO
NATIONAL WEATHER SERVICE DENVER/BOULDER CO
600 PM MST THU DEC 18 2014

NOTE: "FAIR" INDICATES FEW OR NO CLOUDS BELOW 12000 FEET WITH NO
SIGNIFICANT WEATHER AND/OR OBSTRUCTIONS TO VISIBILITY.

COZ001>005-013-030-031-190200-
...NORTHWEST COLORADO...

CITY           SKY/WX    TMP DP  RH WIND       PRES   REMARKS
CRAIG          PTCLDY    14  12  92 SW3       30.15R FOG
HAYDEN         MOCLDY    25  19  80 CALM      30.13R
MEEKER         MOCLDY    15  12  88 NE3       30.13R FOG
MOUNT WERNER   NOT AVBL
STEAMBOAT SPGS CLOUDY    24  21  91 CALM      30.12R
WALDEN         MOCLDY    12   9  85 CALM      30.08S
$$

COZ006>008-011-190200-
...WEST CENTRAL VALLEYS...

CITY           SKY/WX    TMP DP  RH WIND       PRES   REMARKS
GRAND JUNCTION CLOUDY    36  31  82 N3        30.15R
MONTROSE       FLURRIES  34  31  88 CALM      30.16R
EAGLE          FLURRIES  30  28  93 CALM      30.13R
RIFLE          CLOUDY    34  31  88 CALM      30.14R
DELTA          PTCLDY    36  32  85 N6        30.15R
NUCLA          FLURRIES  32  30  93 SE3       30.18R
$$

COZ017>023-064>068-190200-
...SOUTHWEST COLORADO...

CITY           SKY/WX    TMP DP  RH WIND       PRES   REMARKS
DURANGO        PTCLDY    30  24  78 S3        30.10R
CORTEZ         CLEAR     32  27  81 N3        30.13R
PAGOSA SPRINGS CLOUDY    27  24  91 CALM      30.09S
TELLURIDE      CLOUDY    23  21  93 CALM      30.12R
WOLF CREEK PAS PTCLDY    10   9  92 MISG      30.06S
$$

COZ009-010-012-014-032>034-037-058>063-190200-
...CENTRAL COLORADO...

CITY           SKY/WX    TMP DP  RH WIND       PRES   REMARKS
ASPEN          LGT SNOW  27  24  89 CALM      30.09R FOG
BUENA VISTA    MOCLDY    27  22  84 CALM      30.06R
COPPER MTN     LGT SNOW  18  10  73 W16       30.05S WCI   3
BERTHOUD PASS  CLOUDY     9   3  78 MISG      30.05S
COTTONWOOD PAS CLOUDY    27  21  80 CALM      30.06R
GUNNISON       PTCLDY    27  21  80 N7        30.11R WCI  19
KREMMLING      PTCLDY    18  14  86 CALM      30.12S
LEADVILLE      CLOUDY    17  11  77 N7        30.05R WCI   8
MONARCH PASS   CLOUDY    14  10  85 MISG      30.15R
SALIDA         PTCLDY    33  20  59 W13G18    30.13R WCI  23
SUNLIGHT       LGT SNOW N/A N/A N/A W3        30.10R VSB 1
WILKERSON PASS CLOUDY    18  12  79 NW5       30.07S WCI  11
$$

COZ069>075-190200-
...SAN LUIS VALLEY/SANGRE DE CRISTO MOUNTAINS...

CITY           SKY/WX    TMP DP  RH WIND       PRES   REMARKS
ALAMOSA        CLOUDY    23  19  85 SE6       30.07R WCI  16
LA VETA PASS   MOCLDY    18  14  86 MISG      30.03S
SAGUACHE       CLOUDY    28  23  80 E3        30.09R
$$

COZ035-036-038>040-190200-
...NORTHERN COLORADO FRONT RANGE...

CITY           SKY/WX    TMP DP  RH WIND       PRES   REMARKS
DENVER INTL AP PTCLDY    31  26  82 E3        30.04R
DMNS CITY PARK   N/A     37  26  66 NE1       30.05R
AURORA         MOCLDY    32  29  89 NE2       30.05R
FRONT RANGE AP NOT AVBL
ERIE MUNI ARPT   N/A     30  24  78 CALM      30.05S
BOULDER MUN AP CLOUDY    36  27  69 CALM      30.05R
CENTENNIAL     MOCLDY    34  27  75 N5        30.04R WCI  30
BROOMFIELD     MOCLDY    37  25  60 N3        30.05R
FORT COLLINS   CLEAR     36  23  60 SE3       30.07R
LONGMONT       MOCLDY    31  24  74 W5        30.08R WCI  27
$$

COZ041-046-047-076>085-087-088-190200-
...PIKES PEAK/PALMER DIVIDE AND SOUTHERN FOOTHILLS...

CITY           SKY/WX    TMP DP  RH WIND       PRES   REMARKS
COLO. SPRINGS  MOCLDY    33  27  78 SE9       30.07R WCI  25
A. F. ACADEMY  MOCLDY    35  26  68 SE13      30.05R WCI  27
ELLICOTT       NOT AVBL
FALCON         NOT AVBL
FORT CARSON    MOCLDY    33  27  77 S6        30.06R WCI  28
LIMON          MOCLDY    30  20  66 S9        30.06R WCI  22
MONUMENT HILL  CLOUDY    30  25  80 S7        30.03S WCI  23
TRINIDAD       MOCLDY    34  25  69 NE3       30.03R
$$

COZ042>045-048>051-090-091-190200-
...NORTHEAST COLORADO...

CITY           SKY/WX    TMP DP  RH WIND       PRES   REMARKS
GREELEY ARPT   CLEAR     30  19  64 CALM      30.05R
AKRON          MOCLDY    29  25  85 S7        30.06R WCI  22
BURLINGTON     CLEAR     33  25  72 SE3       30.08R
WRAY           MOCLDY    24  23  97 SW6       30.09R FOG     WCI  17
STERLING       MOCLDY    23  21  93 W5        30.07R FOG     WCI  17
HOLYOKE        NOT AVBL
FORT MORGAN    MOCLDY    27  19  73 N6        30.07R WCI  20
$$

COZ086-089-092>099-190200-
...SOUTHEAST COLORADO...

CITY           SKY/WX    TMP DP  RH WIND       PRES   REMARKS
PUEBLO         CLOUDY    35  26  69 E8        30.05R WCI  29
LA JUNTA       PTCLDY    32  28  85 NE6       30.06R WCI  26
LAMAR          PTCLDY    32  28  85 NE7       30.06S WCI  26
SPRINGFIELD      N/A     29  26  89 S6        30.08R WCI  23
$$


USA.gov is the U.S. government's official web portal to all federal, state and local government web resources and services.